{"data":{"norad_id":67133,"epoch":"2026-05-25T04:31:41.651328Z","epoch_age_seconds":52519,"freshness":"FRESH","line1":"1 67133U 25301A   26145.18867652  .00002136  00000+0  33489-3 0  9993","line2":"2 67133  51.9010  77.0638 0001114  54.4806 305.6258 14.76425282 25202","mean_motion":14.76425282,"eccentricity":0.0001114,"inclination_deg":51.901,"raan_deg":77.0638,"arg_perigee_deg":54.4806,"mean_anomaly_deg":305.6258,"bstar":0.00033489,"rev_number":2520,"period_min":97.532873322878,"perigee_km":639.84865205484,"apogee_km":641.41243346337,"semimajor_km":7018.7675427591,"source":"CELESTRAK","updated_at":"2026-05-25T13:38:06.747814Z"}}